Regional Weather Roundup
Issued by NWS Memphis, TN

Home | Current Version | Previous Version | Text Only | Print | Product List | Glossary On
Versions: 1 2 3 4 5 6 7 8 9 10 11 12 13 14 15 16 17 18 19 20 21 22 23 24 25 26 27 28 29 30 31 32 33 34 35 36 37 38 39 40 41 42 43 44 45 46 47 48 49 50
000
ASUS44 KMEG 310110
RWRMEG
MEMPHIS CWA HOURLY WEATHER ROUNDUP
NATIONAL WEATHER SERVICE MEMPHIS TN
800 PM CDT SUN AUG 30 2015

...WEST TENNESSEE...

CITY           SKY/WX    TMP DP  RH WIND       PRES   REMARKS
MEMPHIS INTL   MOCLDY    80  67  64 SE5       30.02R
NWS MEMPHIS      N/A     75 N/A N/A MISG        N/A
JACKSON        RAIN      71  69  93 SE5       30.05F
LEXINGTON      CLEAR     72  72 100 CALM      30.06S
DYERSBURG      MOCLDY   N/A N/A N/A MISG        N/A
UNION CITY     CLEAR     72  70  94 SE7       30.04R
PARIS          CLEAR     70  66  88 CALM      30.07R


...EASTERN ARKANSAS...

CITY           SKY/WX    TMP DP  RH WIND       PRES   REMARKS
JONESBORO      CLEAR     76  70  82 E3        29.99R
WEST MEMPHIS   PTCLDY    79  70  74 SE7       30.00R
BATESVILLE     CLEAR     81  72  74 E5        29.99R
NEWPORT        CLEAR     78  73  84 SE6       30.00R
WALNUT RIDGE   CLEAR     81  68  65 SE6       29.99R
BLYTHEVILLE    PTCLDY    77  71  82 SE7       30.02S
SEARCY         CLEAR     80  69  69 E5        29.99R
STUTTGART      PTCLDY    81  66  61 E7        29.98R
PINE BLUFF     PTCLDY    79  70  74 CALM      29.96R
MONTICELLO     PTCLDY    81  70  69 CALM      29.96R


...NORTH MISSISSIPPI...

CITY           SKY/WX    TMP DP  RH WIND       PRES   REMARKS
TUPELO         CLEAR     78  68  71 SE5       30.04R
OXFORD         CLEAR     73  70  88 SE5       30.05S
OLIVE BRANCH   MOCLDY    75  73  94 E6        30.03S
TUNICA         PTCLDY    79  72  78 E9        30.00R
CLARKSDALE     PTCLDY    81  72  74 E6        30.00R
CORINTH        CLEAR     75  70  83 CALM      30.05R
GREENWOOD      CLEAR     82  68  62 E10       29.98R
COLUMBUS       CLEAR     75  68  80 E5        30.04R
STARKVILLE     FAIR      77  68  73 E6        30.04R
GOLDEN TRIANGL CLEAR     75  66  73 E6        30.03R


...SOUTHEAST MISSOURI...

CITY           SKY/WX    TMP DP  RH WIND       PRES   REMARKS
WEST PLAINS    MOCLDY    78  71  79 CALM      30.04R
POPLAR BLUFF   PTCLDY    78  72  81 SE6       30.00R
CAPE GIRARDEAU CLOUDY    79  71  76 S7        30.01R


...NORTHWEST ALABAMA...

CITY           SKY/WX    TMP DP  RH WIND       PRES   REMARKS
MUSCLE SHOALS  PTCLDY    72  66  81 CALM      30.08S


...MIDDLE TENNESSEE...

CITY           SKY/WX    TMP DP  RH WIND       PRES   REMARKS
NASHVILLE      MOCLDY    72  63  73 SE6       30.08S
CLARKSVILLE    CLOUDY    73  70  90 CALM      30.06S
COLUMBIA       CLEAR     73  70  88 CALM      30.08R


...WESTERN KENTUCKY...

CITY           SKY/WX    TMP DP  RH WIND       PRES   REMARKS
PADUCAH        PTCLDY    73  68  84 SE6       30.04R
FORT CAMPBELL  CLOUDY    73  70  92 S3        30.05F


...CENTRAL ARKANSAS...

CITY           SKY/WX    TMP DP  RH WIND       PRES   REMARKS
LITTLE ROCK    PTCLDY    85  67  54 S5        29.96R


SKY/WX REPORTED AS FAIR MEANS FEW OR NO CLOUDS BELOW
12 THOUSAND FEET.




USA.gov is the U.S. government's official web portal to all federal, state and local government web resources and services.